Regional Weather Roundup
Issued by NWS Charleston, SC

Current Version | Previous Version | Graphics & Text | Print | Product List | Glossary On
Versions: 1 2 3 4 5 6 7 8 9 10 11 12 13 14 15 16 17 18 19 20 21 22 23 24 25 26 27 28 29 30 31 32 33 34 35 36 37 38 39 40 41 42 43 44 45 46 47 48 49 50
000
ASUS42 KCHS 210827
RWRCHS

REGIONAL WEATHER ROUNDUP
NATIONAL WEATHER SERVICE CHARLESTON SC
300 AM EST SAT JAN 21 2017

NOTE: "FAIR" INDICATES FEW OR NO CLOUDS BELOW 12,000 FEET WITH NO
SIGNIFICANT WEATHER AND/OR OBSTRUCTIONS TO VISIBILITY.

NOT ALL STATIONS ARE QUALITY CONTROLLED. USE DATA WITH CAUTION...
ESPECIALLY DEWPOINT OBSERVATIONS.

SCZ027-030-031-034>040-042>050-210900-
...SOUTHEAST SOUTH CAROLINA...

CITY           SKY/WX    TMP DP  RH WIND       PRES   REMARKS
N CHARLESTON   MOCLDY    64  62  93 S3        29.90F
WATERFRONT PRK   N/A     64  63  96 CALM      29.90S
MOUNT PLEASANT PTSUNNY   66  64  94 CALM      29.90F
JOHNS ISLAND   PTSUNNY   64  64 100 CALM      29.91R
PINOPOLIS        N/A     66  63  88 SW7       29.81S
MONCKS CORNER  PTSUNNY   63  61  94 S3        29.90S
SUMMERVILLE    CLOUDY   N/A N/A N/A S3        29.90F
BEAUFORT MCAS  CLOUDY    64  63  96 S3        29.90S
BEAUFORT ARPT  PTSUNNY   63  61  94 S5        29.90S
HILTON HEAD IS MOCLDY    64  63  94 S3        29.91S
WALTERBORO     LGT RAIN  63  63 100 CALM      29.90F
ALLENDALE      CLOUDY    63  63 100 CALM      29.89R FOG

...SOUTHERN MIDLANDS AND PEE DEE...

CITY           SKY/WX    TMP DP  RH WIND       PRES   REMARKS
GEORGETOWN     CLOUDY    61  61 100 CALM      29.91F
KINGSTREE      PTSUNNY   59  55  88 CALM      29.90F
ORANGEBURG     CLOUDY    62  60  93 CALM      29.90R
BARNWELL       CLOUDY    63  63 100 CALM      29.90S
AIKEN          CLOUDY    55  54  94 S3        29.93R
MANNING        FAIR      55  54  94 CALM      29.90S
COLUMBIA       CLOUDY    59  55  87 CALM      29.88R
SUMTER         MOCLDY    57  55  94 CALM      29.87S
FLORENCE       FOG       54  54 100 CALM      29.90S VSB 1/4
MYRTLE BEACH   CLOUDY    57  54  88 S3        29.93S
N MYRTLE BEACH CLEAR     53  53 100 NE3       29.90F FOG

$$

GAZ063-065-086>088-099>101-113>116-118-119-134>141-150-210900-
...SOUTHEAST GEORGIA...

CITY           SKY/WX    TMP DP  RH WIND       PRES   REMARKS
SAVANNAH ARPT  PTCLDY    64  61  90 S3        29.91R
HUNTER AAF     MOCLDY    65  65 100 S3        29.89R
FORT STEWART   CLOUDY    63  63 100 CALM      29.89S
STATESBORO     CLOUDY    63  32  30 CALM      29.90R FOG
SYLVANIA       CLOUDY   N/A N/A N/A CALM      29.91R FOG
CLAXTON        PTSUNNY  N/A N/A N/A CALM      29.91R FOG

...CSRA...CENTRAL AND FAR SOUTHEAST GEORGIA...

CITY           SKY/WX    TMP DP  RH WIND       PRES   REMARKS
THOMSON        MOCLDY    58  58 100 CALM      29.94R
AUGUSTA-BUSH   CLOUDY    62  58  86 CALM      29.90R
AUGUSTA-DANIEL CLOUDY    64  59  83 S5        29.90R
SWAINSBORO     CLOUDY    66  64  94 SW3       29.91R
VIDALIA        CLOUDY    68  68 100 SW7       29.91S
EASTMAN        CLOUDY    68  68 100 CALM      29.92S
HAZLEHURST     CLOUDY    69  69 100 S3        29.89F
ALMA           CLOUDY    69  68  96 SW6       29.89F
WAYCROSS       CLOUDY    72  72 100 SW7       29.91S
JESUP          CLOUDY    70  64  83 W3        29.91S
BAXLEY         CLOUDY    70  70 100 W5        29.90S
BRUNSWICK      CLEAR     68  68 100 SW7       29.92S
SAINT SIMONS   CLEAR     66  64  93 SW7       29.91S

$$

SCZ027-028-034-036>038-045-046-048>050-GAZ119-141-210900-
...LAKE AND SUPPLEMENTAL COASTAL OBSERVATIONS...

STATION/POSITION TIME  TEMP    WIND        PRES    WAVE   SWELL
                       AIR SEA DIR/SP/G            HT/PER HT/PER/DIR
                 (UTC) (F)     (DEG/KT/KT) (MB)    (FT/S) (FT/S/D)
WINYAH BAY       0730   62     210/  4     1013.0R
LAKE MURRAY      0750   58        CALM     1011.5S
ACE BASIN NERRS  0745   62        CALM     1013.0S
FORT PULASKI     0800   63 58  220/  5/  6 1013.0
SAPELO ISLAND    0800   64     210/  4     1013.0

$$

ANZ835-935-AMZ111-154-330-350-352-354-370-450-454-472-210900-
...C-MAN AND BUOY OBSERVATIONS...

STATION/POSITION TIME  TEMP    WIND        PRES    WAVE   SWELL
                       AIR SEA DIR/SP/G            HT/PER HT/PER/DIR
                 (UTC) (F)     (DEG/KT/KT) (MB)    (FT/S) (FT/S/D)
BUOY 41004       0750   70 68  230/  8/ 10 1012.6S   2/11   2/ 80/11
BUOY 41008       0750   64 61  180/ 10/ 12 1012.2F   3/12   2/ 70/12
FOLLY BEACH CMAN 0800   62        CALM     1013.1F
CAPERS NEARSHORE 0808   59 56  250/  4/  6 1012.3F
FRIPP NEARSHORE  0808   61 58  220/  4/  6 1012.3R


STATION/POSITION TIME  TEMP    WIND        PRES    WAVE   SWELL
                       AIR SEA DIR/SP/G            HT/PER HT/PER/DIR
                 (UTC) (F)     (DEG/KT/KT) (MB)    (FT/S) (FT/S/D)
5E ST. MARYS GA  0800      64                N/A     2/13   2/ 90/13
FRYING PAN BUOY  0810   70 71  250/ 10/ 14 1012.6
BUOY 41025       0750   57 75  350/ 16/ 17 1012.5R   4/10   3/ 90/10
CAPE LOOKOUT NC  0800   51      10/  6/  8 1013.0R
BUOY 41002       0750   72 70  260/ 10/ 12 1012.9R   6/12   5/ 50/12
BUOY 41010       NOT AVBL
ST AUGUSTINE FL  0800   66 63  230/  6/  7 1014.9F


$$




USA.gov is the U.S. government's official web portal to all federal, state and local government web resources and services.